Weather Roundup
Issued by NWS

Home | Current Version | Previous Version | Graphics & Text | Print | Product List | Glossary Off
Versions: 1 2 3 4 5 6 7 8 9 10 11 12 13 14 15 16 17 18 19 20 21 22 23 24 25 26 27 28 29 30 31 32 33 34 35 36 37 38 39 40 41 42 43 44 45 46 47 48 49 50

000
NZUS93 KARX 141210
HRRWXR

CURRENT HOURLY OBSERVATIONS ACROSS
MUCH OF THE UPPER MISSISSIPPI VALLEY
NATIONAL WEATHER SERVICE LA CROSSE WI
600 AM CST THU DEC 14 2017


...SOUTHEAST MINNESOTA...


CITY           SKY/WX    TMP DP  RH WIND       PRES   REMARKS
ROCHESTER      CLOUDY     7   6  96 CALM      30.00R
ROCHESTER/MAYO FAIR      14  12  94 CALM      30.02R
WINONA           N/A     10   9  92 CALM      30.06R
AUSTIN         CLOUDY    10   9  92 CALM      30.00S
ALBERT LEA     CLOUDY    10   9  92 CALM      30.00S
DODGE CENTER   CLOUDY     9   7  92 CALM      29.99S
PRESTON        CLOUDY    10   8  90 CALM      30.01R
OWATONNA       CLOUDY     9   7  92 CALM      30.00R
FARIBAULT      CLOUDY     9   5  85 CALM      30.02R
$$

...ELSEWHERE IN MINNESOTA...


CITY           SKY/WX    TMP DP  RH WIND       PRES   REMARKS
MINNEAPOLIS    MOCLDY    17  14  88 W5        30.01S WCI  10
INTNL FALLS    LGT SNOW  12   8  84 W7        29.93R VSB 1   WCI   1
DULUTH         CLOUDY    14  12  92 NW5       29.91S WCI   6
RED WING       CLOUDY    12   9  85 CALM      30.02S
REDWOOD FALLS  CLOUDY    21  14  74 W10       30.01R WCI  10
MANKATO        CLOUDY    11   9  92 CALM      30.03R
WORTHINGTON    CLOUDY    21  18  88 N6        30.00R WCI  13
FAIRMONT       CLOUDY    18  14  84 CALM      30.02R
$$

...SOUTHWEST WISCONSIN...


CITY           SKY/WX    TMP DP  RH WIND       PRES   REMARKS
LA CROSSE      CLOUDY     8   4  83 SE3       30.06R
PRAIRIE DU CHI CLEAR     12   8  83 N3        30.04R
BOSCOBEL       CLOUDY     7   3  84 CALM      30.05R FOG
LONE ROCK      CLEAR      8   5  87 CALM      30.03R
PLATTEVILLE    CLEAR     13  12  95 CALM      30.01R
FORT MC COY    CLOUDY    -1  -4  88 CALM      30.04R
CAMP DOUGLAS   CLOUDY     6   2  85 CALM      30.01R
MAUSTON-NEW LI CLOUDY     9   6  89 W3        30.00R
VIROQUA        FAIR      10  10  98 NW5       29.99R WCI   2
WIS DELLS      CLOUDY     8   6  89 NW3       30.00R
$$

...ELSEWHERE IN WISCONSIN...


CITY           SKY/WX    TMP DP  RH WIND       PRES   REMARKS
MILWAUKEE      PTCLDY    15   9  76 NW8       29.98R WCI   4
MADISON        CLOUDY     9   7  92 CALM      29.99R
GREEN BAY      PTCLDY     3  -3  76 W5        29.98R WCI  -6
EAU CLAIRE     CLOUDY    10   8  92 SW5       30.00S WCI   2
BLACK RVR FLS  FAIR      -6 -11  78 CALM      30.02R
MEDFORD        CLOUDY     4   0  86 CALM      29.93R
WAUSAU         CLOUDY     8   5  87 NW7       29.94R WCI  -3
WIS RAPIDS     CLOUDY     1  -2  87 CALM      30.00R
MARSHFIELD     CLOUDY     1  -2  87 NW8       29.95R WCI -13
RICE LAKE      CLOUDY    15  13  92 CALM      29.98F
$$

...NORTHEAST IOWA...


CITY           SKY/WX    TMP DP  RH WIND       PRES   REMARKS
WATERLOO       CLOUDY    17  13  84 N5        30.04R WCI  10
DUBUQUE        CLOUDY    15  12  88 NE5       30.00R WCI   8
DECORAH        CLOUDY     9   9 100 CALM      30.00R
MASON CITY     CLOUDY    14  11  87 CALM      30.03R
CHARLES CITY   PTCLDY    12  12 100 W5        30.03R WCI   4
OELWEIN        CLOUDY    12  10  92 CALM      30.02R
$$

...ELSEWHERE IN IOWA...


CITY           SKY/WX    TMP DP  RH WIND       PRES   REMARKS
DES MOINES     CLOUDY    26  17  68 N6        30.04R WCI  19
IOWA CITY      CLOUDY    18  12  77 CALM      30.04R
FORT DODGE     CLOUDY    22  17  81 CALM      30.03
MARSHALLTOWN   CLOUDY    23  17  78 N3        30.02R
CEDAR RAPIDS   PTCLDY    13   9  84 NW6       30.01R WCI   4
$$

...NORTHERN ILLINOIS...


CITY           SKY/WX    TMP DP  RH WIND       PRES   REMARKS
CHICAGO-OHARE  PTCLDY    17   9  70 NW12      29.97R WCI   4
CHICAGO-MIDWAY CLOUDY    20  12  71 N13       29.98R WCI   7
MOLINE         CLOUDY    24  16  71 N3        30.01R
ROCKFORD       CLEAR     13   7  77 NW6       30.03R WCI   4
PEORIA         PTCLDY    21  15  78 VRB3      30.01R
$$

NOTE: "FAIR" INDICATES FEW OR NO CLOUDS BELOW 12,000 FEET WITH NO
SIGNIFICANT WEATHER AND/OR OBSTRUCTIONS TO VISIBILITY. WIND
SPEEDS ARE IN MILES-PER-HOUR.




USA.gov is the U.S. government's official web portal to all federal, state and local government web resources and services.